Content
SEND FEEDBACK

Daily
Averages
Monthly
Summary
United States of America

HERMOSA, SOUTH DAKOTA


Home > North America > United States > South Dakota
Elevation: 3300 feet     Latitude: 43 50N     Longitude: 103 11W

WEATHER
 
SELECT A DAY
Number of Records: 202,792;   Date Range: 1/1/95 - 9/30/14
 
SHARE

PRINT THIS DATA

[ ← Previous Day ]
WEATHER ALMANAC - NOVEMBER 12, 2013
[ Next Day → ]
[ °C ]   °F
Weather ElementAverageHighLow
Temperature31.3 °F52 °F (2:52 pm)10 °F (5:52 am)
Dewpoint22.9 °F34 °F (1:52 pm)7 °F (5:52 am)
Humidity73.3 %91 % (8:52 am)50 % (12:52 pm)
Barometer30.51 in30.76 in (1:52 am)30.22 in (11:52 pm)
Wind Speed4 mph12.7 mph (1:52 pm)
Weather ElementAverage
Visibility10 mi
Wind DirectionENE (78.7 °)

Weather ElementTotal
Precipitation0.01 in
Heating Degree Days34 (Base 65)
Averaged from 23 records on November 12, 2013
WEATHER CONDITIONS BREAKOUT
WIND DIRECTION BREAKOUT
WEATHER BY HOUR - NOVEMBER 12, 2013
[ °C ]   °F
Local TimeTemperatureDewpointHumidityBarometerVisibilityWind DirectionWind SpeedGust SpeedPrecipitationEventsConditions
1:52 AM15.1 °F12.0 °F88 %30.76 in10.0 miESE (120°)3.5 mphClear
2:52 AM16.0 °F12.9 °F88 %30.74 in10.0 miSE (140°)4.6 mphClear
3:52 AM16.0 °F12.9 °F88 %30.72 in10.0 miCalmClear
4:52 AM15.1 °F12.0 °F88 %30.72 in10.0 miCalmClear
5:52 AM10.0 °F7.0 °F87 %30.72 in10.0 miCalmClear
6:52 AM10.9 °F8.1 °F88 %30.72 in10.0 miCalmClear
7:52 AM19.9 °F17.1 °F89 %30.70 in10.0 miCalm0.01 inClear
8:52 AM24.1 °F21.9 °F91 %30.67 in10.0 miSSE (150°)3.5 mphClear
9:52 AM27.0 °F23.0 °F85 %30.64 in10.0 miSE (130°)4.6 mphClear
10:52 AM36.0 °F28.9 °F76 %30.60 in10.0 miSSE (150°)8.1 mphClear
11:52 AM45.0 °F30.0 °F56 %30.53 in10.0 miSouth (170°)10.4 mphClear
12:52 PM50.0 °F32.0 °F50 %30.48 in10.0 miSouth (170°)11.5 mphClear
1:52 PM51.1 °F34.0 °F52 %30.45 in10.0 miSE (140°)12.7 mphClear
2:52 PM52.0 °F34.0 °F50 %30.40 in10.0 miSE (140°)11.5 mphClear
3:52 PM51.1 °F33.1 °F50 %30.37 in10.0 miSSE (150°)9.2 mphClear
4:52 PM42.1 °F30.9 °F65 %30.38 in10.0 miSouth (180°)6.9 mphClear
5:52 PM37.0 °F28.0 °F70 %30.39 in10.0 miCalmClear
6:52 PM33.1 °F26.1 °F75 %30.39 in10.0 miCalmClear
7:52 PM32.0 °F25.0 °F75 %30.35 in10.0 miCalmClear
8:52 PM34.0 °F25.0 °F70 %30.31 in10.0 miCalmClear
9:52 PM41.0 °F26.1 °F55 %30.27 in10.0 miSouth (170°)4.6 mphClear
10:52 PM32.0 °F24.1 °F73 %30.24 in10.0 miCalmClear
11:52 PM28.9 °F23.0 °F78 %30.22 in10.0 miCalmClear
Hourly data recorded from KRAP, located miles away from Hermosa, South Dakota







STORIES FROM OUR PARTNERS